TimeCDT,TemperatureF,Dew PointF,Humidity,Sea Level PressureIn,VisibilityMPH,Wind Direction,Wind SpeedMPH,Gust SpeedMPH,PrecipitationIn,Events,Conditions,WindDirDegrees,DateUTC
12:15 AM,82.4,69.8,66,29.91,10.0,SSW,4.6,-,N/A,,Clear,200,2013-09-09 05:15:00
12:35 AM,82.4,69.8,66,29.91,10.0,SSW,5.8,-,N/A,,Clear,200,2013-09-09 05:35:00
12:55 AM,80.6,69.8,70,29.92,10.0,SSW,5.8,-,N/A,,Clear,210,2013-09-09 05:55:00
1:15 AM,80.6,69.8,70,29.92,10.0,SSW,4.6,-,N/A,,Clear,210,2013-09-09 06:15:00
1:35 AM,78.8,68.0,69,29.92,10.0,SSW,5.8,-,N/A,,Clear,200,2013-09-09 06:35:00
1:55 AM,78.8,68.0,69,29.92,10.0,South,4.6,-,N/A,,Clear,190,2013-09-09 06:55:00
2:15 AM,78.8,68.0,69,29.91,10.0,South,5.8,-,N/A,,Clear,190,2013-09-09 07:15:00
2:35 AM,77.0,68.0,74,29.91,10.0,South,4.6,-,N/A,,Clear,190,2013-09-09 07:35:00
2:55 AM,77.0,69.8,78,29.91,10.0,South,4.6,-,N/A,,Clear,190,2013-09-09 07:55:00
3:15 AM,75.2,68.0,78,29.91,10.0,SSW,3.5,-,N/A,,Clear,200,2013-09-09 08:15:00
3:35 AM,75.2,68.0,78,29.92,10.0,Calm,Calm,-,N/A,,Clear,0,2013-09-09 08:35:00
3:55 AM,75.2,68.0,78,29.92,10.0,Calm,Calm,-,N/A,,Clear,0,2013-09-09 08:55:00
4:15 AM,75.2,68.0,78,29.92,10.0,SW,3.5,-,N/A,,Clear,230,2013-09-09 09:15:00
4:35 AM,75.2,68.0,78,29.92,10.0,SSW,4.6,-,N/A,,Clear,210,2013-09-09 09:35:00
4:55 AM,75.2,68.0,78,29.93,10.0,SW,5.8,-,N/A,,Clear,220,2013-09-09 09:55:00
5:15 AM,75.2,68.0,78,29.93,10.0,SW,5.8,-,N/A,,Clear,220,2013-09-09 10:15:00
5:35 AM,75.2,68.0,78,29.94,10.0,SW,5.8,-,N/A,,Clear,220,2013-09-09 10:35:00
5:55 AM,75.2,68.0,78,29.94,10.0,SW,4.6,-,N/A,,Clear,220,2013-09-09 10:55:00
6:15 AM,75.2,68.0,78,29.94,10.0,Calm,Calm,-,N/A,,Clear,0,2013-09-09 11:15:00
6:35 AM,75.2,68.0,78,29.94,10.0,Calm,Calm,-,N/A,,Clear,0,2013-09-09 11:35:00
6:55 AM,75.2,66.2,73,29.95,10.0,SSW,4.6,-,N/A,,Clear,210,2013-09-09 11:55:00
7:15 AM,75.2,68.0,78,29.95,9.0,Calm,Calm,-,N/A,,Clear,0,2013-09-09 12:15:00
7:35 AM,73.4,68.0,83,29.95,9.0,Calm,Calm,-,N/A,,Clear,0,2013-09-09 12:35:00
7:55 AM,75.2,68.0,78,29.96,9.0,SW,4.6,-,N/A,,Clear,220,2013-09-09 12:55:00
8:15 AM,78.8,68.0,69,29.96,9.0,SSW,5.8,-,N/A,,Clear,210,2013-09-09 13:15:00
8:35 AM,80.6,68.0,65,29.96,10.0,SW,9.2,-,N/A,,Clear,220,2013-09-09 13:35:00
8:55 AM,80.6,66.2,61,29.97,10.0,SW,8.1,-,N/A,,Clear,220,2013-09-09 13:55:00
9:15 AM,82.4,68.0,62,29.98,10.0,SW,6.9,-,N/A,,Clear,220,2013-09-09 14:15:00
9:35 AM,84.2,66.2,55,29.98,10.0,SW,6.9,-,N/A,,Clear,230,2013-09-09 14:35:00
9:55 AM,84.2,66.2,55,29.98,10.0,SW,9.2,-,N/A,,Clear,230,2013-09-09 14:55:00
10:15 AM,86.0,68.0,55,29.99,10.0,SW,6.9,-,N/A,,Clear,230,2013-09-09 15:15:00
10:35 AM,87.8,66.2,49,29.99,10.0,SW,12.7,-,N/A,,Clear,220,2013-09-09 15:35:00
10:55 AM,87.8,66.2,49,29.99,10.0,SW,9.2,16.1,N/A,,Clear,230,2013-09-09 15:55:00
11:15 AM,89.6,66.2,46,29.99,10.0,SW,13.8,-,N/A,,Clear,230,2013-09-09 16:15:00
11:35 AM,91.4,66.2,43,29.99,10.0,WSW,11.5,-,N/A,,Clear,240,2013-09-09 16:35:00
11:55 AM,91.4,66.2,43,29.99,10.0,West,11.5,17.3,N/A,,Clear,260,2013-09-09 16:55:00
12:15 PM,93.2,66.2,41,29.98,10.0,SSW,12.7,-,N/A,,Clear,200,2013-09-09 17:15:00
12:35 PM,93.2,64.4,38,29.98,10.0,SW,10.4,16.1,N/A,,Clear,230,2013-09-09 17:35:00
12:55 PM,93.2,64.4,38,29.98,10.0,SW,15.0,20.7,N/A,,Clear,230,2013-09-09 17:55:00
1:15 PM,95.0,64.4,36,29.97,10.0,SW,12.7,18.4,N/A,,Clear,220,2013-09-09 18:15:00
1:35 PM,95.0,64.4,36,29.97,10.0,SW,13.8,18.4,N/A,,Clear,230,2013-09-09 18:35:00
1:55 PM,95.0,62.6,34,29.96,10.0,WSW,17.3,21.9,N/A,,Clear,240,2013-09-09 18:55:00
2:15 PM,96.8,62.6,32,29.96,10.0,SW,16.1,21.9,N/A,,Clear,220,2013-09-09 19:15:00
2:55 PM,96.8,62.6,32,29.94,10.0,SW,13.8,20.7,N/A,,Clear,230,2013-09-09 19:55:00
3:15 PM,96.8,60.8,30,29.94,10.0,SSW,16.1,21.9,N/A,,Clear,210,2013-09-09 20:15:00
3:35 PM,96.8,60.8,30,29.93,10.0,SSW,13.8,21.9,N/A,,Clear,200,2013-09-09 20:35:00
3:55 PM,96.8,60.8,30,29.93,10.0,SSW,15.0,18.4,N/A,,Clear,200,2013-09-09 20:55:00
4:15 PM,96.8,60.8,30,29.93,10.0,SW,15.0,19.6,N/A,,Clear,230,2013-09-09 21:15:00
4:35 PM,96.8,60.8,30,29.93,10.0,SSW,11.5,17.3,N/A,,Clear,210,2013-09-09 21:35:00
4:55 PM,95.0,60.8,32,29.93,10.0,SSW,11.5,19.6,N/A,,Clear,200,2013-09-09 21:55:00
5:15 PM,95.0,60.8,32,29.94,10.0,SSW,12.7,19.6,N/A,,Clear,210,2013-09-09 22:15:00
5:35 PM,93.2,60.8,34,29.93,10.0,SSW,9.2,18.4,N/A,,Clear,210,2013-09-09 22:35:00
5:55 PM,93.2,60.8,34,29.93,10.0,SSW,8.1,-,N/A,,Clear,210,2013-09-09 22:55:00
6:15 PM,91.4,62.6,38,29.94,10.0,SSW,8.1,-,N/A,,Clear,210,2013-09-09 23:15:00
6:35 PM,91.4,62.6,38,29.94,10.0,SSW,8.1,-,N/A,,Clear,210,2013-09-09 23:35:00
6:55 PM,89.6,62.6,40,29.93,10.0,SSW,5.8,-,N/A,,Clear,210,2013-09-09 23:55:00
7:15 PM,87.8,64.4,46,29.94,10.0,SSW,4.6,-,N/A,,Clear,210,2013-09-10 00:15:00
7:35 PM,87.8,64.4,46,29.94,10.0,South,3.5,-,N/A,,Clear,190,2013-09-10 00:35:00
7:55 PM,84.2,64.4,51,29.94,10.0,South,3.5,-,N/A,,Clear,190,2013-09-10 00:55:00
8:15 PM,84.2,64.4,51,29.94,10.0,South,3.5,-,N/A,,Clear,180,2013-09-10 01:15:00
8:35 PM,82.4,66.2,58,29.95,10.0,Calm,Calm,-,N/A,,Clear,0,2013-09-10 01:35:00
8:55 PM,78.8,66.2,65,29.96,10.0,Calm,Calm,-,N/A,,Clear,0,2013-09-10 01:55:00
9:15 PM,78.8,64.4,61,29.96,10.0,Calm,Calm,-,N/A,,Clear,0,2013-09-10 02:15:00
9:35 PM,75.2,66.2,73,29.97,10.0,Calm,Calm,-,N/A,,Clear,0,2013-09-10 02:35:00
9:55 PM,77.0,66.2,69,29.97,9.0,Calm,Calm,-,N/A,,Clear,0,2013-09-10 02:55:00
10:15 PM,75.2,66.2,73,29.97,10.0,Calm,Calm,-,N/A,,Clear,0,2013-09-10 03:15:00
10:35 PM,75.2,66.2,73,29.98,10.0,South,4.6,-,N/A,,Clear,170,2013-09-10 03:35:00
10:55 PM,75.2,66.2,73,29.98,10.0,SSE,3.5,-,N/A,,Clear,160,2013-09-10 03:55:00
11:15 PM,75.2,66.2,73,29.98,10.0,SSE,3.5,-,N/A,,Clear,160,2013-09-10 04:15:00
11:35 PM,75.2,66.2,73,29.99,10.0,Calm,Calm,-,N/A,,Clear,0,2013-09-10 04:35:00
11:55 PM,75.2,66.2,73,29.99,10.0,Calm,Calm,-,N/A,,Clear,0,2013-09-10 04:55:00